Change the Weather History Date:

Monday, December 10, 2012

  Actual Average Record
Temperature  
Mean Temperature 39 °F 39 °F  
Max Temperature 47 °F 48 °F 72 °F (1971)
Min Temperature 31 °F 30 °F 2 °F (1995)
Degree Days  
Heating Degree Days 26 26  
Month to date heating degree days 104 249  
Since 1 July heating degree days 996 1026  
Cooling Degree Days 0 0  
Month to date cooling degree days 1 0  
Year to date cooling degree days 1978 1542  
Moisture  
Dew Point 29 °F    
Average Humidity 81    
Maximum Humidity 93    
Minimum Humidity 69    
Precipitation  
Precipitation 0.00 in 0.16 in 1.83 in (1964)
Month to date precipitation 1.79 1.57  
Year to date precipitation 27.93 46.06  
Snow  
Snow 0.00 in 0.10 in 1.00 in (1962)
Month to date snowfall 0.0 0.5  
Since 1 July snowfall 0.0 0.6  
Snow Depth 0.00 in    
Sea Level Pressure  
Sea Level Pressure 29.92 in    
Wind  
Wind Speed 11 mph (NNW)    
Max Wind Speed 17 mph    
Max Gust Speed 24 mph    
Visibility 10 miles    
Events      
T = Trace of Precipitation, MM = Missing Value Source: NWS Daily Summary

Daily Weather History Graph

Daily Weather History Graph

Search for Another Location

Airport or City:

Trip Planner

Search our weather history database for the weather conditions in past years. The results will help you decide how hot, cold, wet, or windy it might be!

Date:

Astronomy

Dec. 10, 2012 Rise Set
Actual Time 6:58 AM CST 4:38 PM CST
Civil Twilight 6:29 AM CST 5:07 PM CST
Nautical Twilight 5:56 AM CST 5:39 PM CST
Astronomical Twilight 5:24 AM CST 6:11 PM CST
Moon 3:43 AM CST (12/10) 2:25 PM CST (12/10)
Length of Visible Light 10h 38m
Length of Day
9h 40m
Waning Crescent, 10% of the Moon is Illuminated
Dec 10
Waning Crescent
Dec 13
New
Dec 19
First Quarter
Dec 28
Full
Jan 4
Last Quarter

Hourly Weather History & Observations

Time (CST) Temp. Windchill Dew Point Humidity Pressure Visibility Wind Dir Wind Speed Gust Speed Precip Events Conditions
12:53 AM 46.9 °F - 44.1 °F 90% 29.83 in 6.0 mi NNW 15.0 mph 18.4 mph N/A   Overcast
1:53 AM 46.0 °F 39.9 °F 42.1 °F 86% 29.82 in 9.0 mi North 13.8 mph - N/A   Overcast
2:46 AM 44.6 °F 38.4 °F 39.2 °F 81% 29.82 in 10.0 mi NNW 12.7 mph - N/A   Overcast
2:53 AM 45.0 °F 38.9 °F 39.9 °F 82% 29.82 in 10.0 mi NNW 12.7 mph - N/A   Overcast
3:46 AM 44.6 °F 38.4 °F 37.4 °F 76% 29.81 in 10.0 mi NNW 12.7 mph 18.4 mph N/A   Overcast
3:53 AM 44.1 °F 37.7 °F 37.9 °F 79% 29.81 in 10.0 mi North 12.7 mph - N/A   Overcast
4:53 AM 43.0 °F 36.8 °F 35.1 °F 74% 29.81 in 10.0 mi North 11.5 mph - N/A   Mostly Cloudy
5:26 AM 42.8 °F 37.5 °F 35.6 °F 76% 29.83 in 10.0 mi NNW 9.2 mph - N/A   Mostly Cloudy
5:53 AM 41.0 °F 35.8 °F 35.1 °F 79% 29.83 in 10.0 mi NNW 8.1 mph - N/A   Overcast
6:53 AM 39.0 °F 31.8 °F 33.1 °F 79% 29.84 in 10.0 mi NNW 11.5 mph - N/A   Scattered Clouds
7:09 AM 39.2 °F 33.0 °F 33.8 °F 81% 29.85 in 10.0 mi NNW 9.2 mph - N/A   Mostly Cloudy
7:36 AM 37.4 °F 30.3 °F 30.2 °F 75% 29.87 in 10.0 mi NNW 10.4 mph - N/A   Overcast
7:53 AM 36.0 °F 27.1 °F 30.0 °F 79% 29.88 in 10.0 mi NNW 13.8 mph - N/A   Overcast
8:03 AM 33.8 °F 24.3 °F 28.4 °F 81% 29.88 in 10.0 mi NNW 13.8 mph 23.0 mph N/A   Overcast
8:46 AM 33.8 °F 23.5 °F 26.6 °F 75% 29.89 in 9.0 mi NNW 16.1 mph 21.9 mph N/A   Overcast
8:53 AM 33.1 °F 23.9 °F 27.0 °F 78% 29.91 in 9.0 mi NNW 12.7 mph 23.0 mph N/A   Overcast
9:53 AM 33.8 °F 25.3 °F 26.6 °F 75% 29.91 in 9.0 mi NNW 11.5 mph - N/A   Overcast
10:53 AM 34.0 °F 26.6 °F 27.0 °F 75% 29.91 in 9.0 mi NNW 9.2 mph - N/A   Overcast
11:53 AM 33.1 °F 24.9 °F 26.1 °F 75% 29.91 in 10.0 mi NW 10.4 mph - N/A   Overcast
12:53 PM 33.1 °F 23.4 °F 25.0 °F 72% 29.91 in 10.0 mi NW 13.8 mph - N/A   Overcast
1:53 PM 33.1 °F 26.9 °F 25.0 °F 72% 29.89 in 10.0 mi North 6.9 mph - N/A   Overcast
2:53 PM 33.1 °F 24.4 °F 25.0 °F 72% 29.92 in 10.0 mi NNW 11.5 mph - N/A   Overcast
3:53 PM 32.0 °F 24.8 °F 24.1 °F 73% 29.94 in 10.0 mi NW 8.1 mph - N/A   Overcast
4:53 PM 32.0 °F 25.6 °F 24.1 °F 73% 29.97 in 10.0 mi NW 6.9 mph - N/A   Overcast
5:53 PM 32.0 °F 23.6 °F 24.1 °F 73% 30.00 in 10.0 mi NNW 10.4 mph - N/A   Overcast
6:41 PM 32.0 °F 24.8 °F 24.8 °F 75% 30.01 in 10.0 mi NW 8.1 mph - N/A   Overcast
6:53 PM 32.0 °F 25.6 °F 24.1 °F 73% 30.01 in 10.0 mi NW 6.9 mph - N/A   Overcast
7:37 PM 32.0 °F 25.6 °F 24.8 °F 75% 30.02 in 10.0 mi Variable 6.9 mph - N/A   Overcast
7:53 PM 32.0 °F 24.2 °F 24.1 °F 73% 30.04 in 10.0 mi NW 9.2 mph - N/A   Overcast
8:53 PM 30.9 °F 21.2 °F 21.9 °F 69% 30.05 in 10.0 mi North 12.7 mph - N/A   Overcast
9:53 PM 30.9 °F 25.2 °F 21.9 °F 69% 30.06 in 10.0 mi NNW 5.8 mph - N/A   Overcast
10:53 PM 30.9 °F 22.2 °F 21.0 °F 67% 30.09 in 10.0 mi North 10.4 mph - N/A   Overcast
11:53 PM 30.9 °F 22.2 °F 19.9 °F 64% 30.09 in 10.0 mi North 10.4 mph - N/A   Overcast